QPF
0.00 0.00 0.00 0.00 0.00 0.00 0.00 0.00 0.00 0.00 0.00 0.00 0.00 0.00 0.02 0.03 0.02 0.00 0.00 0.00 0.00 0.00 0.00 0.00 0.00 0.00 0.00 0.01 0.01 0.01 0.01 0.01 0.02 0.03 0.04 0.04 0.05 0.05 0.06 0.07 0.07 0.08 0.04 0.04
0.00 0.00 0.00 0.00 0.00 0.00 0.00 0.00 0.00 0.01 0.00 0.00 0.00 0.00 0.00 0.00 0.00 0.00 0.01 0.00 0.00 0.00 0.00 0.00 0.00 0.00 0.00 0.00 0.01 0.01 0.02 0.02 0.02 0.03 0.05 0.05 0.05 0.05 0.05 0.05 0.06 0.03 0.03 0.05
0.00 0.00 0.00 0.00 0.00 0.00 0.00 0.00 0.00 0.01 0.01 0.00 0.00 0.00 0.00 0.00 0.00 0.00 0.01 0.01 0.00 0.00 0.00 0.00 0.00 0.00 0.00 0.00 0.00 0.01 0.01 0.01 0.02 0.04 0.04 0.06 0.06 0.05 0.05 0.09 0.12 0.07 0.05 0.04
0.00 0.00 0.00 0.00 0.00 0.00 0.00 0.00 0.00 0.00 0.01 0.01 0.01 0.02 0.02 0.01 0.02 0.01 0.00 0.00 0.01 0.03 0.01 0.00 0.00 0.00 0.01 0.01 0.01 0.01 0.01 0.02 0.02 0.02 0.02 0.04 0.04 0.05 0.05 0.09 0.12 0.07 0.06 0.04
0.00 0.00 0.00 0.00 0.00 0.00 0.00 0.00 0.00 0.00 0.01 0.02 0.02 0.02 0.02 0.01 0.02 0.01 0.00 0.01 0.03 0.05 0.01 0.00 0.00 0.00 0.01 0.02 0.02 0.02 0.02 0.03 0.03 0.03 0.03 0.04 0.04 0.06 0.06 0.08 0.08 0.07 0.06 0.05
0.00 0.00 0.00 0.00 0.00 0.00 0.00 0.00 0.00 0.00 0.01 0.02 0.01 0.02 0.02 0.04 0.04 0.01 0.00 0.01 0.02 0.01 0.01 0.01 0.00 0.00 0.01 0.02 0.03 0.03 0.02 0.02 0.03 0.03 0.03 0.04 0.05 0.07 0.08 0.06 0.06 0.05 0.05 0.04
0.00 0.00 0.00 0.00 0.00 0.00 0.00 0.00 0.01 0.01 0.01 0.02 0.01 0.01 0.01 0.03 0.02 0.00 0.00 0.01 0.01 0.01 0.04 0.04 0.01 0.01 0.02 0.03 0.05 0.05 0.03 0.02 0.03 0.03 0.03 0.03 0.05 0.05 0.05 0.04 0.05 0.05 0.04 0.05
0.00 0.00 0.00 0.00 0.00 0.00 0.00 0.00 0.00 0.01 0.01 0.02 0.01 0.01 0.02 0.00 0.00 0.00 0.00 0.00 0.00 0.02 0.03 0.04 0.02 0.01 0.01 0.01 0.03 0.04 0.03 0.02 0.03 0.03 0.03 0.04 0.05 0.05 0.04 0.05 0.04 0.04 0.04 0.04
0.00 0.00 0.00 0.00 0.00 0.00 0.00 0.00 0.00 0.00 0.00 0.01 0.02 0.02 0.02 0.01 0.00 0.00 0.00 0.01 0.01 0.01 0.01 0.02 0.02 0.01 0.01 0.01 0.02 0.02 0.03 0.02 0.03 0.03 0.03 0.03 0.04 0.05 0.05 0.05 0.03 0.03 0.03 0.02
0.00 0.00 0.00 0.00 0.00 0.00 0.00 0.00 0.00 0.00 0.00 0.01 0.02 0.03 0.05 0.04 0.04 0.05 0.06 0.06 0.03 0.01 0.01 0.01 0.01 0.01 0.00 0.02 0.02 0.01 0.02 0.02 0.03 0.04 0.04 0.03 0.04 0.04 0.04 0.03 0.03 0.03 0.03 0.02
0.01 0.00 0.00 0.00 0.00 0.00 0.00 0.00 0.00 0.00 0.00 0.00 0.01 0.03 0.06 0.04 0.02 0.02 0.04 0.08 0.06 0.03 0.02 0.01 0.02 0.01 0.01 0.01 0.01 0.01 0.02 0.03 0.04 0.04 0.04 0.04 0.04 0.03 0.03 0.03 0.03 0.03 0.03 0.03
0.01 0.01 0.01 0.00 0.00 0.00 0.00 0.00 0.00 0.01 0.01 0.01 0.01 0.03 0.04 0.03 0.01 0.02 0.04 0.05 0.05 0.05 0.03 0.02 0.02 0.02 0.01 0.01 0.02 0.02 0.02 0.03 0.03 0.04 0.04 0.03 0.03 0.03 0.03 0.03 0.03 0.03 0.03 0.04
0.01 0.01 0.01 0.01 0.01 0.01 0.00 0.00 0.00 0.00 0.01 0.01 0.02 0.03 0.02 0.02 0.02 0.04 0.04 0.09 0.11 0.07 0.04 0.03 0.04 0.03 0.02 0.02 0.04 0.03 0.02 0.02 0.02 0.03 0.03 0.02 0.02 0.02 0.02 0.03 0.03 0.03 0.03 0.03
0.00 0.01 0.01 0.02 0.02 0.01 0.02 0.01 0.00 0.00 0.01 0.02 0.03 0.04 0.07 0.03 0.01 0.03 0.05 0.07 0.17 0.12 0.05 0.04 0.05 0.05 0.04 0.04 0.03 0.03 0.03 0.02 0.02 0.02 0.03 0.03 0.03 0.02 0.03 0.03 0.03 0.02 0.02 0.02
0.00 0.01 0.01 0.00 0.02 0.01 0.01 0.01 0.00 0.00 0.01 0.02 0.03 0.05 0.08 0.04 0.02 0.07 0.12 0.07 0.07 0.05 0.04 0.06 0.04 0.05 0.04 0.02 0.02 0.03 0.02 0.02 0.02 0.03 0.02 0.02 0.02 0.03 0.03 0.04 0.03 0.02 0.02 0.02
0.01 0.01 0.01 0.01 0.01 0.00 0.01 0.02 0.02 0.01 0.01 0.01 0.02 0.04 0.03 0.03 0.03 0.06 0.07 0.07 0.05 0.03 0.03 0.06 0.05 0.03 0.05 0.03 0.01 0.01 0.01 0.01 0.02 0.04 0.02 0.02 0.02 0.02 0.03 0.03 0.03 0.04 0.03 0.03
0.02 0.02 0.02 0.02 0.00 0.01 0.03 0.01 0.01 0.03 0.03 0.03 0.03 0.03 0.01 0.01 0.02 0.03 0.03 0.05 0.03 0.02 0.02 0.02 0.03 0.02 0.03 0.03 0.01 0.01 0.01 0.01 0.01 0.02 0.02 0.02 0.03 0.03 0.03 0.02 0.03 0.03 0.04 0.04
0.02 0.03 0.03 0.02 0.02 0.04 0.04 0.01 0.01 0.03 0.03 0.03 0.03 0.02 0.01 0.01 0.01 0.03 0.02 0.03 0.02 0.03 0.03 0.03 0.03 0.01 0.02 0.02 0.01 0.01 0.01 0.01 0.01 0.02 0.02 0.03 0.04 0.04 0.04 0.04 0.04 0.04 0.04 0.04
0.01 0.03 0.03 0.03 0.03 0.04 0.03 0.01 0.01 0.03 0.05 0.03 0.01 0.01 0.01 0.01 0.01 0.03 0.02 0.01 0.01 0.03 0.03 0.06 0.05 0.02 0.01 0.02 0.02 0.01 0.01 0.01 0.01 0.02 0.03 0.02 0.03 0.04 0.04 0.05 0.04 0.04 0.05 0.04
0.01 0.02 0.02 0.03 0.05 0.07 0.05 0.03 0.02 0.03 0.06 0.03 0.01 0.01 0.01 0.01 0.02 0.03 0.01 0.00 0.00 0.01 0.02 0.06 0.09 0.06 0.03 0.02 0.02 0.02 0.02 0.02 0.02 0.02 0.03 0.04 0.04 0.04 0.05 0.06 0.06 0.06 0.05 0.05
0.03 0.03 0.03 0.03 0.06 0.07 0.04 0.03 0.02 0.04 0.05 0.02 0.01 0.01 0.01 0.02 0.02 0.01 0.01 0.01 0.01 0.01 0.02 0.03 0.06 0.06 0.04 0.03 0.03 0.03 0.03 0.03 0.04 0.04 0.04 0.05 0.05 0.05 0.06 0.07 0.07 0.07 0.06 0.07
0.02 0.03 0.04 0.04 0.06 0.08 0.05 0.03 0.04 0.05 0.04 0.03 0.02 0.02 0.02 0.03 0.03 0.02 0.02 0.02 0.02 0.01 0.02 0.03 0.06 0.06 0.04 0.03 0.03 0.04 0.04 0.05 0.05 0.05 0.06 0.06 0.07 0.07 0.07 0.08 0.08 0.08 0.07 0.06
0.02 0.03 0.04 0.05 0.08 0.07 0.05 0.05 0.05 0.04 0.05 0.05 0.05 0.05 0.05 0.06 0.07 0.05 0.04 0.03 0.02 0.02 0.03 0.03 0.04 0.06 0.05 0.03 0.03 0.04 0.05 0.05 0.05 0.06 0.06 0.08 0.08 0.10 0.10 0.10 0.09 0.08 0.08 0.06
0.02 0.02 0.02 0.03 0.04 0.05 0.04 0.02 0.03 0.06 0.05 0.05 0.04 0.06 0.06 0.08 0.08 0.05 0.04 0.04 0.04 0.03 0.04 0.04 0.04 0.05 0.05 0.03 0.04 0.07 0.08 0.08 0.07 0.06 0.07 0.08 0.09 0.11 0.11 0.09 0.08 0.07 0.07 0.06
0.02 0.02 0.04 0.05 0.05 0.04 0.03 0.02 0.02 0.07 0.09 0.08 0.07 0.08 0.08 0.12 0.08 0.04 0.04 0.03 0.04 0.03 0.04 0.04 0.04 0.05 0.05 0.04 0.05 0.08 0.12 0.12 0.11 0.09 0.08 0.08 0.10 0.10 0.10 0.09 0.07 0.07 0.06 0.06
0.01 0.03 0.04 0.05 0.05 0.05 0.03 0.02 0.01 0.02 0.03 0.06 0.07 0.07 0.07 0.08 0.06 0.04 0.04 0.03 0.03 0.03 0.04 0.05 0.06 0.07 0.07 0.06 0.06 0.07 0.11 0.14 0.15 0.11 0.09 0.09 0.09 0.09 0.08 0.08 0.09 0.08 0.07 0.05
MSLP
1007.51 1008.03 1008.37 1008.50 1008.44 1008.22 1007.92 1007.64 1007.44 1007.39 1007.54 1007.88 1008.41 1009.08 1009.84 1010.62 1011.35 1012.00 1012.51 1012.87 1013.05 1013.07 1012.94 1012.67 1012.32 1011.92 1011.50 1011.11 1010.78 1010.54 1010.39 1010.34 1010.38 1010.49 1010.64 1010.82 1010.99 1011.15 1011.27 1011.36 1011.43 1011.49 1011.55 1011.62
1007.77 1008.18 1008.43 1008.49 1008.39 1008.17 1007.91 1007.69 1007.58 1007.63 1007.86 1008.28 1008.86 1009.56 1010.34 1011.12 1011.88 1012.56 1013.12 1013.56 1013.85 1014.00 1014.00 1013.87 1013.64 1013.34 1012.99 1012.64 1012.31 1012.04 1011.84 1011.72 1011.67 1011.68 1011.73 1011.79 1011.85 1011.88 1011.89 1011.87 1011.83 1011.79 1011.77 1011.78
1007.95 1008.26 1008.41 1008.41 1008.28 1008.09 1007.90 1007.78 1007.79 1007.96 1008.30 1008.81 1009.45 1010.18 1010.95 1011.71 1012.44 1013.09 1013.66 1014.11 1014.45 1014.67 1014.77 1014.75 1014.64 1014.44 1014.18 1013.89 1013.60 1013.34 1013.12 1012.96 1012.85 1012.78 1012.73 1012.69 1012.64 1012.56 1012.46 1012.32 1012.19 1012.06 1011.96 1011.92
1008.12 1008.32 1008.38 1008.33 1008.20 1008.05 1007.96 1007.97 1008.13 1008.45 1008.93 1009.54 1010.25 1011.00 1011.75 1012.46 1013.12 1013.69 1014.19 1014.59 1014.91 1015.14 1015.28 1015.33 1015.30 1015.19 1015.02 1014.81 1014.58 1014.35 1014.14 1013.95 1013.80 1013.67 1013.56 1013.44 1013.30 1013.14 1012.94 1012.73 1012.51 1012.31 1012.15 1012.05
1008.33 1008.44 1008.43 1008.34 1008.23 1008.15 1008.16 1008.32 1008.64 1009.13 1009.76 1010.49 1011.27 1012.04 1012.77 1013.41 1013.96 1014.42 1014.78 1015.08 1015.32 1015.49 1015.62 1015.69 1015.70 1015.65 1015.55 1015.41 1015.23 1015.04 1014.85 1014.66 1014.49 1014.33 1014.16 1013.99 1013.80 1013.58 1013.33 1013.07 1012.80 1012.56 1012.35 1012.19
1008.67 1008.70 1008.64 1008.53 1008.44 1008.43 1008.56 1008.86 1009.36 1010.01 1010.80 1011.64 1012.49 1013.28 1013.97 1014.53 1014.96 1015.27 1015.49 1015.63 1015.74 1015.81 1015.87 1015.91 1015.92 1015.90 1015.84 1015.74 1015.60 1015.44 1015.27 1015.08 1014.90 1014.72 1014.53 1014.34 1014.12 1013.88 1013.62 1013.34 1013.06 1012.79 1012.54 1012.34
1009.19 1009.16 1009.05 1008.93 1008.87 1008.93 1009.16 1009.60 1010.24 1011.05 1011.96 1012.91 1013.83 1014.63 1015.29 1015.76 1016.07 1016.22 1016.27 1016.25 1016.20 1016.15 1016.11 1016.08 1016.06 1016.03 1015.97 1015.89 1015.77 1015.62 1015.45 1015.26 1015.07 1014.88 1014.69 1014.49 1014.28 1014.05 1013.80 1013.54 1013.27 1012.99 1012.73 1012.49
1009.90 1009.82 1009.69 1009.57 1009.53 1009.64 1009.95 1010.49 1011.24 1012.16 1013.17 1014.20 1015.15 1015.97 1016.58 1016.98 1017.17 1017.19 1017.08 1016.91 1016.71 1016.52 1016.37 1016.26 1016.18 1016.11 1016.03 1015.93 1015.81 1015.65 1015.46 1015.27 1015.06 1014.86 1014.66 1014.47 1014.28 1014.09 1013.88 1013.66 1013.42 1013.16 1012.90 1012.62
1010.76 1010.66 1010.52 1010.40 1010.38 1010.52 1010.88 1011.47 1012.28 1013.26 1014.32 1015.38 1016.35 1017.15 1017.72 1018.05 1018.15 1018.06 1017.83 1017.53 1017.21 1016.92 1016.67 1016.48 1016.33 1016.21 1016.09 1015.96 1015.80 1015.61 1015.39 1015.16 1014.93 1014.72 1014.52 1014.34 1014.17 1014.02 1013.86 1013.69 1013.50 1013.28 1013.02 1012.74
1011.72 1011.62 1011.48 1011.37 1011.35 1011.51 1011.88 1012.48 1013.29 1014.27 1015.33 1016.37 1017.31 1018.07 1018.60 1018.87 1018.91 1018.74 1018.44 1018.06 1017.66 1017.29 1016.98 1016.72 1016.52 1016.35 1016.19 1016.01 1015.80 1015.56 1015.30 1015.03 1014.76 1014.52 1014.31 1014.13 1013.99 1013.87 1013.76 1013.64 1013.50 1013.32 1013.09 1012.81
1012.68 1012.61 1012.49 1012.40 1012.39 1012.54 1012.89 1013.46 1014.23 1015.14 1016.13 1017.11 1017.99 1018.69 1019.16 1019.39 1019.38 1019.18 1018.85 1018.44 1018.02 1017.62 1017.28 1017.00 1016.76 1016.55 1016.35 1016.12 1015.86 1015.57 1015.25 1014.92 1014.61 1014.32 1014.08 1013.90 1013.76 1013.66 1013.59 1013.51 1013.42 1013.28 1013.09 1012.84
1013.57 1013.55 1013.48 1013.42 1013.43 1013.56 1013.87 1014.37 1015.06 1015.87 1016.75 1017.62 1018.40 1019.02 1019.43 1019.62 1019.59 1019.39 1019.07 1018.69 1018.28 1017.90 1017.57 1017.29 1017.05 1016.81 1016.57 1016.30 1015.99 1015.64 1015.26 1014.88 1014.51 1014.17 1013.90 1013.68 1013.53 1013.44 1013.37 1013.32 1013.26 1013.17 1013.02 1012.81
1014.34 1014.39 1014.38 1014.36 1014.40 1014.52 1014.79 1015.21 1015.78 1016.47 1017.21 1017.95 1018.61 1019.13 1019.48 1019.64 1019.61 1019.44 1019.16 1018.83 1018.48 1018.16 1017.86 1017.61 1017.37 1017.13 1016.86 1016.56 1016.20 1015.80 1015.36 1014.92 1014.49 1014.10 1013.77 1013.51 1013.33 1013.21 1013.14 1013.09 1013.04 1012.97 1012.86 1012.70
1014.95 1015.08 1015.15 1015.20 1015.26 1015.39 1015.61 1015.96 1016.42 1016.97 1017.57 1018.16 1018.70 1019.13 1019.42 1019.55 1019.54 1019.41 1019.20 1018.94 1018.67 1018.41 1018.17 1017.94 1017.72 1017.48 1017.20 1016.86 1016.46 1016.02 1015.53 1015.03 1014.54 1014.09 1013.71 1013.40 1013.16 1013.00 1012.89 1012.82 1012.77 1012.70 1012.62 1012.49
1015.41 1015.62 1015.77 1015.89 1016.00 1016.14 1016.34 1016.61 1016.97 1017.40 1017.87 1018.33 1018.75 1019.10 1019.34 1019.46 1019.47 1019.39 1019.25 1019.07 1018.88 1018.69 1018.50 1018.31 1018.10 1017.85 1017.55 1017.18 1016.75 1016.26 1015.72 1015.18 1014.64 1014.14 1013.70 1013.34 1013.04 1012.82 1012.66 1012.54 1012.45 1012.37 1012.29 1012.18
1015.73 1016.02 1016.25 1016.43 1016.59 1016.75 1016.94 1017.17 1017.45 1017.78 1018.14 1018.50 1018.83 1019.11 1019.31 1019.43 1019.48 1019.45 1019.38 1019.27 1019.14 1019.00 1018.85 1018.67 1018.46 1018.19 1017.86 1017.46 1017.00 1016.47 1015.91 1015.33 1014.76 1014.22 1013.74 1013.32 1012.96 1012.67 1012.44 1012.26 1012.12 1012.00 1011.89 1011.78
1015.94 1016.28 1016.57 1016.82 1017.03 1017.21 1017.40 1017.61 1017.84 1018.10 1018.38 1018.67 1018.94 1019.18 1019.37 1019.50 1019.57 1019.60 1019.57 1019.52 1019.43 1019.32 1019.18 1018.99 1018.76 1018.46 1018.10 1017.67 1017.17 1016.62 1016.04 1015.44 1014.86 1014.30 1013.79 1013.32 1012.91 1012.56 1012.26 1012.01 1011.79 1011.61 1011.45 1011.31
1016.05 1016.43 1016.76 1017.05 1017.30 1017.52 1017.72 1017.92 1018.13 1018.35 1018.58 1018.83 1019.06 1019.28 1019.47 1019.62 1019.72 1019.78 1019.80 1019.77 1019.70 1019.59 1019.43 1019.21 1018.94 1018.60 1018.20 1017.73 1017.21 1016.65 1016.07 1015.48 1014.90 1014.35 1013.82 1013.34 1012.90 1012.50 1012.14 1011.81 1011.52 1011.26 1011.04 1010.85
1016.08 1016.47 1016.83 1017.15 1017.42 1017.67 1017.88 1018.08 1018.29 1018.49 1018.71 1018.94 1019.16 1019.37 1019.57 1019.73 1019.86 1019.94 1019.97 1019.95 1019.87 1019.74 1019.54 1019.28 1018.96 1018.57 1018.13 1017.64 1017.11 1016.56 1015.99 1015.43 1014.88 1014.35 1013.85 1013.37 1012.91 1012.48 1012.07 1011.69 1011.33 1011.01 1010.71 1010.45
1016.04 1016.42 1016.78 1017.11 1017.41 1017.67 1017.90 1018.11 1018.32 1018.53 1018.74 1018.96 1019.19 1019.40 1019.60 1019.77 1019.91 1019.99 1020.02 1019.98 1019.88 1019.70 1019.46 1019.15 1018.78 1018.36 1017.89 1017.39 1016.87 1016.35 1015.82 1015.31 1014.81 1014.32 1013.86 1013.40 1012.96 1012.52 1012.09 1011.67 1011.26 1010.87 1010.52 1010.19
1015.92 1016.28 1016.64 1016.98 1017.28 1017.56 1017.80 1018.03 1018.24 1018.46 1018.67 1018.89 1019.11 1019.33 1019.53 1019.69 1019.82 1019.89 1019.89 1019.83 1019.69 1019.47 1019.19 1018.84 1018.43 1017.99 1017.52 1017.03 1016.54 1016.05 1015.59 1015.14 1014.70 1014.28 1013.86 1013.45 1013.03 1012.61 1012.18 1011.74 1011.31 1010.89 1010.49 1010.11
1015.72 1016.07 1016.42 1016.76 1017.07 1017.35 1017.61 1017.85 1018.08 1018.30 1018.51 1018.73 1018.94 1019.15 1019.33 1019.47 1019.57 1019.61 1019.59 1019.49 1019.31 1019.06 1018.75 1018.37 1017.96 1017.52 1017.06 1016.61 1016.17 1015.74 1015.34 1014.96 1014.60 1014.24 1013.88 1013.52 1013.14 1012.74 1012.32 1011.89 1011.46 1011.03 1010.62 1010.22
1015.47 1015.80 1016.14 1016.48 1016.80 1017.10 1017.37 1017.63 1017.86 1018.08 1018.29 1018.50 1018.69 1018.87 1019.02 1019.14 1019.20 1019.21 1019.15 1019.01 1018.81 1018.54 1018.21 1017.84 1017.44 1017.02 1016.61 1016.21 1015.82 1015.47 1015.14 1014.82 1014.52 1014.22 1013.91 1013.59 1013.24 1012.88 1012.49 1012.09 1011.67 1011.27 1010.87 1010.48
1015.15 1015.48 1015.82 1016.17 1016.50 1016.82 1017.11 1017.37 1017.62 1017.84 1018.04 1018.23 1018.39 1018.54 1018.65 1018.73 1018.76 1018.72 1018.63 1018.47 1018.25 1017.98 1017.66 1017.31 1016.94 1016.57 1016.22 1015.88 1015.56 1015.27 1015.00 1014.74 1014.48 1014.22 1013.95 1013.65 1013.34 1012.99 1012.63 1012.27 1011.89 1011.52 1011.16 1010.82
1014.79 1015.12 1015.47 1015.83 1016.19 1016.53 1016.84 1017.12 1017.37 1017.58 1017.78 1017.94 1018.08 1018.19 1018.27 1018.31 1018.29 1018.23 1018.12 1017.95 1017.73 1017.47 1017.17 1016.86 1016.54 1016.23 1015.94 1015.66 1015.40 1015.16 1014.93 1014.71 1014.48 1014.23 1013.97 1013.68 1013.37 1013.05 1012.72 1012.38 1012.05 1011.74 1011.44 1011.15
1014.41 1014.75 1015.11 1015.50 1015.87 1016.23 1016.56 1016.85 1017.11 1017.33 1017.51 1017.66 1017.78 1017.86 1017.91 1017.91 1017.87 1017.79 1017.67 1017.50 1017.29 1017.05 1016.80 1016.53 1016.26 1016.00 1015.76 1015.53 1015.32 1015.11 1014.90 1014.69 1014.46 1014.21 1013.94 1013.64 1013.33 1013.01 1012.70 1012.39 1012.11 1011.85 1011.62 1011.41
Thickness
5808 5798 5794 5807 5818 5819 5820 5819 5819 5829 5846 5838 5827 5823 5830 5839 5836 5831 5828 5825 5822 5820 5823 5823 5820 5816 5811 5805 5800 5797 5793 5791 5789 5785 5782 5778 5776 5775 5774 5772 5769 5767 5766 5765
5796 5792 5814 5826 5828 5821 5818 5814 5818 5828 5842 5834 5824 5820 5828 5832 5830 5829 5825 5821 5818 5816 5816 5815 5814 5811 5806 5801 5797 5794 5791 5789 5786 5783 5781 5778 5776 5773 5772 5771 5769 5767 5765 5763
5793 5808 5824 5818 5813 5810 5813 5811 5815 5817 5827 5832 5820 5808 5813 5821 5827 5827 5825 5823 5818 5813 5809 5808 5807 5805 5802 5797 5794 5792 5788 5786 5784 5782 5779 5776 5773 5770 5768 5765 5764 5764 5762 5762
5804 5818 5817 5810 5808 5809 5802 5821 5819 5816 5809 5804 5810 5785 5800 5812 5813 5817 5818 5818 5816 5811 5809 5807 5804 5801 5799 5797 5794 5790 5786 5783 5781 5779 5776 5771 5767 5763 5763 5762 5761 5762 5762 5760
5799 5810 5808 5804 5810 5813 5808 5823 5818 5814 5805 5799 5804 5788 5793 5809 5800 5808 5813 5814 5813 5811 5808 5805 5803 5800 5799 5797 5793 5788 5784 5780 5778 5776 5773 5769 5766 5765 5763 5761 5759 5759 5759 5758
5805 5819 5817 5814 5820 5820 5818 5813 5809 5807 5799 5777 5791 5782 5778 5796 5798 5803 5809 5810 5809 5809 5808 5805 5804 5800 5796 5794 5791 5786 5780 5776 5774 5772 5770 5766 5763 5761 5759 5757 5755 5755 5755 5754
5789 5803 5815 5818 5803 5808 5805 5786 5768 5764 5764 5768 5796 5785 5781 5801 5809 5806 5805 5805 5805 5805 5804 5801 5798 5794 5791 5789 5786 5783 5777 5773 5771 5769 5767 5764 5762 5759 5757 5755 5753 5752 5751 5750
5770 5777 5803 5808 5799 5792 5795 5786 5762 5748 5753 5766 5785 5778 5783 5805 5809 5809 5807 5803 5799 5796 5796 5796 5794 5792 5788 5785 5783 5779 5774 5769 5767 5765 5763 5762 5760 5757 5756 5754 5753 5751 5750 5748
5767 5770 5802 5808 5808 5799 5785 5785 5795 5778 5772 5764 5770 5779 5786 5797 5796 5798 5794 5794 5791 5790 5790 5790 5788 5787 5785 5781 5778 5775 5770 5766 5764 5762 5760 5758 5756 5754 5752 5751 5751 5749 5748 5747
5773 5761 5785 5798 5800 5799 5797 5791 5782 5769 5750 5746 5756 5761 5765 5774 5779 5783 5781 5782 5783 5785 5783 5784 5783 5782 5779 5777 5774 5772 5768 5763 5761 5759 5757 5755 5752 5750 5749 5747 5745 5745 5744 5743
5772 5754 5765 5779 5774 5775 5780 5778 5774 5770 5768 5747 5737 5746 5773 5775 5778 5776 5774 5776 5776 5776 5774 5776 5775 5776 5774 5772 5770 5765 5762 5759 5757 5755 5752 5750 5748 5746 5745 5742 5741 5739 5738 5736
5763 5752 5746 5762 5783 5789 5779 5772 5767 5747 5746 5754 5745 5740 5777 5775 5775 5771 5768 5770 5770 5771 5771 5770 5767 5766 5763 5762 5761 5759 5756 5753 5752 5750 5747 5745 5743 5741 5738 5736 5736 5734 5731 5730
5750 5738 5726 5739 5754 5764 5762 5767 5767 5760 5750 5744 5736 5734 5765 5765 5764 5763 5761 5761 5760 5761 5761 5760 5757 5755 5752 5752 5751 5751 5750 5748 5747 5745 5741 5738 5736 5735 5732 5731 5729 5727 5725 5724
5746 5733 5725 5716 5729 5740 5742 5751 5757 5751 5740 5736 5737 5734 5743 5748 5750 5751 5752 5752 5751 5750 5748 5746 5743 5743 5743 5742 5742 5742 5742 5742 5741 5738 5734 5731 5729 5728 5727 5725 5723 5721 5719 5717
5741 5727 5731 5737 5745 5745 5742 5743 5745 5742 5743 5735 5735 5734 5734 5740 5742 5743 5744 5743 5741 5737 5736 5735 5732 5731 5733 5732 5733 5733 5733 5734 5733 5730 5727 5725 5724 5723 5721 5719 5716 5714 5712 5711
5731 5719 5722 5724 5737 5740 5736 5738 5739 5739 5740 5738 5733 5727 5737 5739 5738 5735 5734 5733 5731 5730 5727 5726 5724 5723 5722 5722 5723 5725 5724 5724 5724 5721 5720 5720 5718 5716 5714 5712 5710 5707 5705 5704
5718 5711 5706 5708 5725 5724 5714 5727 5729 5728 5734 5731 5719 5719 5727 5725 5724 5724 5724 5723 5722 5721 5720 5718 5717 5715 5715 5714 5716 5716 5716 5717 5716 5714 5714 5713 5712 5710 5707 5706 5703 5700 5698 5696
5709 5704 5703 5704 5705 5689 5713 5737 5734 5725 5725 5728 5723 5719 5718 5718 5719 5719 5718 5714 5712 5712 5711 5710 5709 5708 5709 5709 5710 5710 5710 5709 5708 5708 5707 5706 5706 5703 5701 5698 5696 5693 5691 5689
5716 5702 5695 5693 5689 5694 5709 5721 5721 5711 5705 5718 5715 5712 5713 5715 5711 5707 5709 5707 5705 5704 5703 5702 5702 5702 5702 5702 5702 5702 5701 5701 5700 5700 5699 5699 5698 5695 5693 5691 5689 5687 5685 5683
5710 5703 5690 5687 5676 5673 5692 5712 5720 5709 5689 5705 5708 5704 5703 5701 5689 5688 5698 5700 5699 5697 5695 5695 5694 5694 5694 5694 5694 5692 5691 5691 5691 5691 5691 5691 5691 5689 5687 5685 5683 5682 5679 5677
5687 5684 5681 5677 5671 5675 5693 5706 5707 5680 5674 5693 5696 5694 5691 5687 5684 5687 5690 5690 5690 5689 5688 5687 5687 5685 5686 5687 5686 5684 5683 5682 5684 5685 5684 5683 5683 5682 5681 5679 5677 5676 5673 5671
5681 5675 5672 5671 5660 5661 5686 5689 5678 5673 5684 5686 5686 5686 5684 5682 5683 5682 5682 5681 5681 5681 5680 5679 5678 5678 5679 5679 5678 5676 5675 5676 5677 5677 5676 5675 5675 5675 5675 5672 5669 5667 5665 5663
5679 5676 5672 5667 5662 5672 5679 5677 5677 5679 5676 5677 5677 5678 5677 5675 5673 5672 5671 5671 5672 5672 5671 5671 5670 5669 5670 5671 5671 5669 5669 5670 5669 5668 5667 5666 5666 5665 5665 5663 5660 5658 5657 5655
5673 5677 5668 5662 5665 5669 5672 5673 5673 5672 5669 5671 5671 5670 5669 5665 5664 5662 5661 5661 5662 5662 5661 5661 5660 5659 5659 5662 5663 5663 5662 5661 5659 5657 5657 5657 5656 5656 5655 5653 5652 5650 5648 5646
5663 5663 5657 5653 5656 5658 5661 5662 5664 5663 5663 5663 5662 5661 5659 5657 5655 5653 5652 5652 5653 5652 5652 5651 5651 5650 5650 5652 5653 5654 5654 5652 5650 5649 5648 5648 5649 5647 5645 5643 5641 5641 5638 5638
5657 5652 5645 5642 5648 5647 5648 5652 5656 5653 5652 5652 5650 5649 5650 5649 5647 5646 5645 5645 5645 5644 5644 5643 5643 5642 5642 5643 5643 5644 5645 5644 5642 5641 5641 5641 5642 5640 5638 5635 5632 5629 5629 5628